Wind_Speed
35 35 35 34 33 31 30 31 32 30 28 26 24 23 21 20 19 18 16 17 16 16 15 16 16 15 15 15 15 16 16 16 17 16 16 16 16 16 16 16 15 15 15 16
38 36 37 37 35 34 33 33 33 32 29 28 27 26 24 23 22 21 19 19 18 18 18 18 17 17 17 17 18 18 18 19 19 19 19 19 18 18 18 18 18 18 17 18
39 38 38 38 36 36 36 35 35 34 32 30 29 29 28 27 26 24 23 22 21 21 21 20 20 20 20 19 20 20 20 21 21 21 21 20 20 20 20 19 20 20 20 20
40 39 41 39 37 36 36 36 36 35 34 32 30 29 30 29 28 27 26 24 24 24 24 23 23 23 22 22 22 22 23 23 23 23 23 23 22 22 22 22 22 22 22 22
41 41 40 39 38 37 37 38 38 36 35 34 32 31 30 29 28 27 27 26 26 27 26 26 26 25 25 25 25 25 26 25 25 25 25 25 25 25 25 25 24 24 24 24
42 42 42 40 38 38 38 39 38 38 37 37 36 34 33 31 30 30 30 29 29 29 29 29 29 28 28 28 28 29 29 29 28 28 27 27 27 27 26 26 26 25 25 25
42 43 44 41 40 40 41 41 38 38 38 38 38 37 35 34 33 32 32 31 31 31 31 31 31 31 31 31 31 32 32 32 31 30 29 29 28 28 27 27 27 26 27 27
42 44 45 43 42 42 42 41 40 39 39 39 39 39 37 36 35 35 35 34 34 33 33 33 34 34 33 33 33 33 33 33 33 32 31 30 30 29 28 28 27 27 27 27
42 43 43 43 43 43 43 43 42 41 40 41 40 40 40 39 39 39 38 38 37 36 35 35 35 35 34 34 34 34 34 35 34 33 31 30 30 30 30 29 29 28 28 28
41 41 41 42 42 42 42 43 43 43 42 42 41 40 41 41 41 40 40 39 39 38 36 36 36 36 36 35 35 35 36 36 35 34 32 31 31 31 30 30 30 29 29 29
41 41 41 41 42 43 43 42 42 43 44 43 42 42 42 42 41 41 40 40 39 38 37 36 37 38 38 38 38 37 36 36 36 36 35 33 32 32 32 31 30 29 28 28
41 41 42 42 42 43 43 43 43 43 44 44 45 44 43 43 42 42 41 41 40 39 38 37 38 38 38 38 37 36 36 36 36 37 36 35 34 33 33 32 31 30 30 29
40 41 42 41 42 42 42 42 42 42 43 44 44 45 44 44 43 42 42 42 40 40 39 38 38 38 38 38 37 35 35 35 36 35 35 35 34 33 32 32 32 31 31 30
37 39 40 40 41 41 41 41 41 42 42 42 42 42 42 42 42 41 41 41 40 40 39 38 38 38 38 37 37 36 35 35 35 34 35 34 33 33 32 33 33 32 32 31
35 38 39 38 39 40 39 39 41 41 40 40 40 40 41 41 41 40 40 39 39 38 38 38 38 38 38 38 37 37 36 36 35 35 35 34 34 33 33 33 32 32 32 31
33 34 34 34 35 38 39 39 38 38 37 38 40 40 39 40 40 40 39 39 38 37 37 37 37 38 38 38 37 37 37 37 36 35 35 35 35 34 33 33 33 32 32 32
31 32 33 32 33 35 35 37 36 35 35 36 37 38 38 38 38 38 38 38 37 37 37 36 36 37 37 37 37 36 37 37 37 36 36 35 35 34 34 33 33 33 33 33
29 29 30 31 31 31 31 32 32 33 33 33 34 36 37 37 38 37 37 37 37 36 36 36 36 35 35 35 35 35 35 36 36 36 36 36 36 35 35 35 34 34 34 34
27 27 26 27 28 28 28 29 30 30 31 32 33 33 35 35 36 36 36 36 35 35 35 36 35 34 34 34 34 34 34 35 35 36 36 36 36 36 36 35 35 35 35 35
25 26 25 25 26 26 26 27 27 28 29 30 31 32 32 33 34 35 35 34 34 34 35 35 34 34 33 33 33 34 34 34 34 34 35 35 35 35 35 36 35 35 35 34
21 22 23 23 24 24 25 24 24 25 26 27 28 29 30 30 31 32 32 32 32 33 33 33 33 33 32 33 33 33 33 33 33 33 34 35 35 35 35 34 34 34 34 34
17 18 19 20 21 22 23 23 24 23 23 24 25 25 26 27 29 30 30 31 30 30 30 30 30 31 32 32 33 33 33 33 33 33 34 34 35 35 35 34 33 33 33 32
14 16 16 17 17 18 19 20 21 21 22 23 23 22 23 24 27 28 28 28 28 28 28 29 29 29 30 31 31 32 32 32 33 33 33 34 34 34 33 33 32 32 33 33
13 14 15 15 15 15 17 18 19 19 20 20 21 21 21 22 23 24 25 26 28 28 28 28 28 28 29 29 30 30 31 31 31 32 32 32 32 32 32 31 31 31 32 32
12 13 12 12 13 13 14 16 17 18 18 19 19 19 20 21 21 22 24 25 25 26 26 25 26 26 26 27 28 28 29 30 30 30 31 31 31 30 30 30 30 30 31 31
10 10 10 10 11 11 12 13 14 15 16 18 18 18 19 19 20 20 21 22 23 23 23 24 24 25 25 25 26 27 27 27 28 29 30 30 29 28 28 29 29 30 30 30
8 8 8 9 9 9 10 11 12 13 14 15 15 16 17 18 18 18 18 19 19 19 20 21 22 23 23 24 24 24 25 26 26 27 27 27 28 28 29 29 30 30 30 30
Wind_Direction
232 228 229 232 232 232 237 241 243 244 247 249 250 256 260 262 263 260 268 270 273 277 282 288 290 292 295 297 300 300 300 301 301 301 301 302 303 305 306 307 306 305 304 304
233 231 230 232 232 234 236 240 240 241 244 246 248 249 254 258 263 262 265 268 270 273 280 285 287 288 291 293 295 296 297 297 297 298 298 298 298 300 302 303 302 302 301 302
234 232 233 233 233 234 237 240 242 241 242 245 247 248 251 257 263 265 267 265 266 271 275 279 283 284 287 290 291 291 293 294 294 295 294 294 295 296 297 298 299 299 299 300
236 234 236 236 236 237 238 240 243 245 243 241 245 249 251 255 260 263 265 263 267 271 274 277 280 283 284 286 289 290 290 291 291 291 290 290 292 294 294 294 294 295 296 296
237 236 238 237 238 239 240 240 240 243 245 245 245 246 249 251 254 258 260 263 267 270 273 276 279 281 283 285 288 289 289 289 288 287 287 288 289 290 292 291 291 293 293 292
238 238 239 239 239 239 241 242 241 242 245 245 244 246 248 250 253 257 260 263 266 269 271 275 277 280 281 283 285 287 287 288 285 285 284 285 286 286 288 290 290 290 290 289
238 239 240 240 239 239 241 242 242 244 245 246 246 247 249 251 254 257 260 263 266 267 269 272 274 277 279 281 282 284 286 287 285 284 284 284 284 285 286 288 288 287 286 286
238 239 240 240 241 241 243 244 245 245 245 246 248 249 250 253 256 259 262 263 265 266 268 269 270 273 276 277 279 281 283 284 285 285 284 282 282 283 285 287 287 287 285 284
239 241 242 243 244 244 244 245 246 246 248 248 249 251 253 255 258 261 263 265 265 264 266 268 270 272 273 274 275 278 280 282 283 282 282 281 281 282 283 284 285 286 287 287
240 241 242 243 243 244 245 245 247 248 249 249 249 251 253 256 258 260 262 265 266 264 264 266 268 269 270 272 273 275 278 279 280 281 281 280 282 282 282 282 282 284 285 285
239 241 242 243 244 245 246 246 248 250 251 250 251 252 254 256 258 260 261 261 263 263 264 265 266 267 269 271 272 274 275 277 277 278 279 280 281 282 281 282 282 284 286 286
241 240 242 243 243 245 247 248 249 249 250 251 252 252 253 255 256 258 260 261 262 264 264 265 266 266 268 270 272 272 274 276 276 276 278 278 279 280 281 281 282 284 285 285
243 242 242 242 243 245 246 248 249 250 251 252 253 253 252 253 254 256 258 260 262 263 265 266 266 266 267 270 272 272 274 274 274 275 276 277 277 278 278 279 280 281 282 282
245 244 244 244 245 246 246 247 248 249 249 250 251 251 252 252 254 256 258 260 261 263 264 265 266 267 269 269 270 271 272 273 273 273 274 276 276 277 277 277 277 278 279 281
247 245 246 246 246 246 246 247 247 247 248 249 250 250 250 250 252 255 257 260 262 264 265 266 267 268 269 269 270 270 271 271 273 273 273 274 275 277 277 277 277 277 278 280
245 245 245 245 247 248 248 249 249 249 249 250 251 251 250 250 252 254 257 259 260 263 265 267 267 268 268 268 269 270 270 270 271 272 272 273 274 275 276 277 277 277 278 280
245 245 247 249 250 250 251 253 253 251 251 251 250 251 251 252 254 255 256 258 259 262 264 266 267 267 266 267 268 269 270 270 271 271 271 271 272 274 275 276 277 277 277 278
249 249 250 251 251 250 250 250 251 250 250 251 251 250 251 251 253 255 257 258 258 260 262 264 266 268 267 266 267 269 270 270 270 270 271 271 271 272 273 274 276 276 275 276
252 251 250 251 252 251 249 250 251 252 253 253 253 251 250 251 253 255 256 257 258 259 261 263 264 266 268 269 269 270 271 271 271 271 272 272 271 271 272 273 273 274 275 276
249 248 247 248 250 250 250 250 252 255 255 256 255 254 254 253 253 254 255 257 259 261 262 264 265 266 268 269 270 270 271 272 273 273 272 272 272 272 272 273 273 274 274 276
246 247 247 249 248 248 250 252 255 256 257 257 258 257 255 254 254 255 257 260 262 263 263 263 264 266 267 268 269 270 270 271 271 272 272 273 273 273 273 274 274 274 276 277
254 252 252 250 249 252 255 256 257 257 257 259 261 259 258 256 256 257 258 259 260 262 263 264 265 265 266 267 268 269 269 270 271 272 273 273 274 274 273 273 274 276 276 277
257 258 255 253 254 257 257 257 257 258 260 260 260 261 261 260 258 257 256 258 260 262 263 264 265 267 268 269 270 270 270 271 271 272 272 274 275 276 275 273 274 276 276 277
263 263 264 263 261 261 259 258 259 259 260 260 261 264 264 264 261 258 257 259 260 262 264 265 266 268 269 271 272 273 274 274 272 271 271 272 274 276 276 275 276 277 277 278
266 267 267 267 265 263 263 260 257 255 256 259 262 266 269 268 266 264 261 261 262 263 265 267 268 270 271 272 274 275 275 275 276 276 274 273 275 276 276 275 276 277 277 278
269 271 272 270 268 268 268 263 258 256 258 261 265 268 271 272 270 266 265 264 263 263 266 267 268 269 271 273 275 276 276 277 278 278 277 275 275 276 276 276 277 278 279 279
269 271 275 273 269 271 272 267 261 261 264 265 269 273 274 273 271 269 266 265 265 266 267 270 271 272 272 274 275 277 278 278 279 280 280 279 278 279 279 278 279 279 279 281
Height
5862 5867 5870 5873 5876 5879 5880 5882 5883 5886 5887 5890 5891 5893 5894 5895 5896 5897 5898 5899 5899 5899 5898 5898 5897 5896 5896 5895 5893 5892 5891 5889 5888 5887 5885 5883 5881 5879 5877 5875 5873 5871 5869 5867
5854 5859 5862 5865 5869 5872 5874 5875 5876 5878 5881 5884 5885 5887 5888 5889 5890 5891 5892 5893 5894 5894 5893 5892 5892 5891 5891 5890 5889 5888 5886 5884 5883 5881 5880 5878 5876 5874 5872 5870 5868 5866 5864 5862
5846 5850 5853 5857 5861 5864 5866 5868 5870 5871 5875 5877 5879 5880 5881 5882 5883 5884 5886 5887 5888 5888 5888 5887 5886 5886 5886 5885 5883 5882 5881 5879 5877 5875 5874 5872 5870 5869 5867 5865 5863 5861 5859 5857
5837 5842 5844 5851 5853 5855 5858 5860 5862 5864 5867 5869 5871 5873 5875 5876 5877 5878 5879 5880 5881 5881 5881 5881 5880 5880 5879 5878 5877 5876 5875 5873 5871 5869 5867 5865 5864 5862 5861 5859 5857 5855 5853 5851
5828 5831 5835 5841 5844 5847 5849 5851 5854 5856 5858 5861 5863 5865 5867 5869 5870 5871 5872 5873 5874 5874 5874 5874 5873 5873 5872 5871 5870 5869 5867 5865 5864 5862 5860 5858 5857 5855 5853 5851 5849 5847 5845 5843
5818 5821 5826 5832 5835 5838 5841 5842 5845 5847 5850 5853 5855 5857 5859 5861 5863 5863 5864 5865 5866 5866 5867 5867 5866 5865 5865 5864 5863 5861 5859 5857 5856 5854 5852 5851 5849 5847 5845 5843 5841 5839 5837 5836
5808 5811 5816 5822 5825 5828 5831 5834 5837 5839 5841 5844 5845 5848 5851 5853 5854 5855 5856 5857 5858 5858 5858 5858 5857 5857 5856 5855 5854 5853 5851 5849 5847 5846 5844 5842 5841 5839 5837 5835 5833 5831 5829 5828
5799 5802 5808 5811 5815 5818 5820 5824 5826 5829 5832 5834 5836 5838 5841 5843 5845 5846 5847 5848 5849 5849 5849 5849 5848 5847 5846 5846 5845 5844 5842 5841 5839 5837 5835 5833 5832 5830 5828 5827 5825 5823 5821 5819
5789 5794 5797 5800 5803 5807 5810 5813 5816 5819 5821 5824 5826 5828 5830 5832 5834 5836 5837 5838 5839 5839 5839 5839 5838 5837 5836 5836 5835 5834 5833 5831 5830 5828 5825 5823 5822 5821 5819 5817 5816 5814 5812 5810
5779 5782 5786 5789 5792 5795 5799 5802 5806 5808 5811 5813 5816 5818 5820 5822 5824 5825 5827 5827 5828 5828 5828 5828 5828 5827 5826 5826 5825 5824 5823 5822 5820 5818 5816 5815 5813 5811 5809 5808 5806 5804 5803 5802
5768 5772 5775 5779 5782 5785 5788 5791 5795 5797 5800 5802 5805 5807 5809 5811 5813 5814 5815 5816 5817 5817 5817 5818 5818 5817 5816 5815 5815 5814 5813 5812 5811 5809 5808 5806 5804 5802 5801 5799 5797 5796 5794 5793
5758 5762 5765 5768 5770 5774 5777 5780 5783 5786 5788 5790 5793 5796 5798 5800 5801 5802 5803 5804 5806 5806 5807 5807 5807 5806 5806 5805 5804 5803 5802 5801 5800 5799 5798 5796 5794 5793 5791 5790 5789 5787 5785 5784
5747 5750 5753 5757 5760 5762 5766 5769 5771 5774 5776 5779 5781 5783 5785 5787 5789 5790 5791 5792 5793 5795 5795 5795 5796 5796 5795 5794 5793 5792 5791 5790 5789 5788 5787 5786 5784 5783 5782 5781 5779 5778 5776 5775
5737 5739 5742 5746 5748 5751 5753 5756 5759 5762 5764 5766 5769 5771 5773 5775 5778 5779 5780 5780 5781 5783 5783 5784 5784 5784 5784 5783 5782 5781 5780 5779 5778 5778 5777 5776 5775 5774 5773 5772 5770 5769 5767 5766
5728 5730 5732 5735 5737 5740 5742 5744 5746 5749 5751 5754 5756 5758 5760 5763 5766 5768 5768 5769 5770 5771 5772 5772 5772 5772 5772 5772 5771 5770 5770 5769 5768 5767 5766 5766 5765 5764 5763 5762 5760 5759 5758 5756
5719 5720 5723 5725 5727 5729 5731 5733 5735 5737 5739 5741 5744 5746 5748 5751 5754 5756 5757 5757 5759 5760 5760 5761 5761 5761 5760 5760 5759 5759 5758 5758 5757 5757 5756 5756 5755 5754 5753 5752 5751 5749 5748 5747
5710 5712 5714 5715 5717 5719 5721 5723 5724 5725 5727 5730 5732 5735 5737 5739 5742 5744 5746 5746 5747 5748 5749 5750 5749 5749 5749 5748 5748 5748 5747 5747 5746 5746 5746 5745 5744 5744 5743 5742 5741 5740 5738 5737
5702 5704 5705 5706 5707 5709 5710 5713 5715 5716 5718 5719 5721 5724 5726 5729 5731 5733 5734 5735 5736 5737 5738 5738 5738 5737 5737 5737 5737 5737 5736 5736 5735 5735 5735 5734 5734 5733 5732 5731 5730 5729 5728 5727
5694 5696 5697 5698 5699 5700 5702 5704 5705 5707 5708 5709 5711 5713 5716 5718 5720 5721 5723 5724 5725 5726 5727 5727 5727 5727 5727 5726 5726 5726 5726 5725 5725 5724 5724 5723 5723 5722 5721 5720 5719 5719 5718 5716
5687 5688 5690 5691 5692 5693 5695 5696 5697 5699 5700 5701 5702 5704 5706 5708 5709 5711 5712 5713 5714 5715 5716 5716 5716 5716 5716 5716 5716 5716 5715 5715 5714 5713 5713 5712 5711 5710 5710 5709 5708 5708 5707 5706
5680 5681 5683 5684 5686 5686 5688 5689 5690 5691 5692 5693 5694 5695 5696 5698 5699 5701 5702 5703 5704 5704 5705 5705 5706 5706 5706 5706 5706 5705 5705 5704 5704 5703 5702 5701 5700 5700 5699 5698 5698 5697 5696 5696
5674 5675 5676 5678 5679 5680 5681 5681 5683 5684 5685 5685 5686 5687 5688 5689 5690 5691 5693 5694 5694 5694 5695 5695 5696 5696 5696 5696 5695 5695 5695 5694 5694 5693 5692 5691 5690 5689 5689 5688 5687 5687 5686 5685
5669 5669 5670 5671 5672 5673 5674 5675 5676 5677 5678 5678 5679 5679 5680 5680 5681 5682 5684 5684 5685 5685 5686 5686 5687 5687 5687 5686 5686 5685 5685 5684 5684 5683 5682 5681 5680 5679 5678 5677 5677 5676 5675 5675
5665 5665 5665 5665 5666 5667 5668 5669 5670 5671 5671 5671 5672 5672 5672 5672 5673 5673 5674 5675 5676 5676 5677 5677 5677 5677 5677 5677 5676 5676 5676 5675 5674 5673 5673 5672 5671 5669 5668 5668 5667 5666 5665 5665
5661 5661 5661 5661 5661 5662 5663 5663 5664 5665 5665 5666 5666 5667 5667 5666 5666 5666 5666 5667 5667 5668 5668 5669 5669 5669 5668 5668 5668 5667 5666 5665 5665 5664 5663 5662 5661 5660 5659 5658 5657 5657 5656 5655
5658 5658 5657 5657 5658 5658 5658 5658 5659 5660 5661 5661 5662 5662 5661 5661 5660 5660 5660 5660 5660 5660 5660 5661 5661 5661 5660 5660 5659 5658 5657 5657 5655 5654 5653 5652 5651 5650 5649 5649 5648 5647 5646 5645
5655 5655 5655 5655 5655 5655 5654 5655 5655 5656 5656 5657 5657 5656 5656 5655 5655 5654 5654 5654 5654 5654 5654 5654 5654 5653 5653 5652 5651 5650 5649 5648 5647 5645 5644 5642 5642 5641 5640 5639 5638 5637 5636 5635